This demonstration page uses our WeatherBlox Daily Observations layout. Learn more.

Left ArrowRight Arrow

47.50024, -111.30081

Hourly Observations for January 21, 2022

Temp ( °F °C ) Dew Point ( °F °C ) Humidity (%) Winds ( mph kmh ) Pressure ( in mb ) Visibility ( mi km ) Precip ( " mm )
12:53 am 00:53 Mostly Cloudy 38 3.3 27 -2.8 65 65 WSW 13 20 29.98 1015 10 16 0.00 0.00
1:53 am 01:53 Cloudy 37 2.8 28 -2.2 70 70 WSW 8 13 30.04 1017 10 16 0.00 0.00
2:53 am 02:53 Cloudy 38 3.3 26 -3.3 62 62 W 13 20 30.08 1019 10 16 0.00 0.00
3:53 am 03:53 Cloudy 35 1.7 26 -3.3 70 70 W 8 13 30.13 1020 10 16 0.00 0.00
4:53 am 04:53 Cloudy 35 1.7 24 -4.4 64 64 NNW 9 15 30.19 1022 10 16 0.00 0.00
5:53 am 05:53 Cloudy 34 1.1 23 -5 64 64 NNW 8 13 30.23 1024 10 16 0.00 0.00
6:53 am 06:53 Mostly Clear 32 0 22 -5.6 66 66 NNW 6 9 30.28 1026 10 16 0.00 0.00
7:53 am 07:53 Cloudy 32 0 23 -5 69 69 WNW 3 6 30.32 1027 10 16 0.00 0.00
8:53 am 08:53 Cloudy 31 -0.6 24 -4.4 76 76 WSW 8 13 30.33 1027 10 16 0.00 0.00
9:53 am 09:53 Cloudy 34 1.1 24 -4.4 67 67 W 5 7 30.36 1028 10 16 0.00 0.00
10:53 am 10:53 Cloudy 36 2.2 24 -4.4 62 62 SW 7 11 30.38 1029 10 16 0.00 0.00
11:53 am 11:53 Mostly Cloudy 40 4.4 24 -4.4 53 53 SSW 6 9 30.34 1027 10 16 0.00 0.00
12:53 pm 12:53 Mostly Sunny 42 5.6 25 -3.9 51 51 WSW 9 15 30.32 1027 10 16 0.00 0.00
1:53 pm 13:53 Mostly Sunny 44 6.7 23 -5 43 43 SW 15 24 30.28 1025 10 16 0.00 0.00
2:53 pm 14:53 Partly Cloudy 41 5 21 -6.1 45 45 W 16 26 30.29 1026 10 16 0.00 0.00
3:53 pm 15:53 Sunny 40 4.4 22 -5.6 49 49 WSW 13 20 30.29 1026 10 16 0.00 0.00
4:53 pm 16:53 Sunny 36 2.2 23 -5 59 59 WSW 13 20 30.31 1026 10 16 0.00 0.00
5:53 pm 17:53 Clear 33 0.6 22 -5.6 64 64 SW 14 22 30.32 1027 10 16 0.00 0.00
6:53 pm 18:53 Clear 30 -1.1 22 -5.6 72 72 SW 10 17 30.35 1028 10 16 0.00 0.00
7:53 pm 19:53 Clear 31 -0.6 22 -5.6 69 69 SW 13 20 30.35 1028 10 16 0.00 0.00
8:53 pm 20:53 Clear 28 -2.2 21 -6.1 75 75 SW 13 20 30.36 1028 10 16 0.00 0.00
9:53 pm 21:53 Clear 29 -1.7 21 -6.1 72 72 SW 14 22 30.34 1028 10 16 0.00 0.00
10:53 pm 22:53 Clear 30 -1.1 21 -6.1 69 69 SW 13 20 30.34 1027 10 16 0.00 0.00
11:53 pm 23:53 Mostly Clear 31 -0.6 21 -6.1 67 67 SSW 16 26 30.31 1026 10 16 0.00 0.00

Powered by AerisWeather